Regional Weather Roundup
Issued by NWS

Home | Current Version | Previous Version | Graphics & Text | Print | Product List | Glossary On
Versions: 1 2 3 4 5 6 7 8 9 10 11 12 13 14 15 16 17 18 19 20 21 22 23 24 25 26 27 28 29 30 31 32 33 34 35 36 37 38 39 40 41 42 43 44 45 46 47 48 49 50
000
ASUS43 KDTX 252110
RWRMI
MICHIGAN HOURLY REGIONAL WEATHER ROUNDUP
NATIONAL WEATHER SERVICE DETROIT/PONTIAC MI
500 PM EDT THU AUG 25 2016

NOTE: "FAIR" INDICATES FEW OR NO CLOUDS BELOW 12,000 FEET WITH NO
SIGNIFICANT WEATHER AND/OR OBSTRUCTION TO VISIBILITY.

MIZ047>049-052>055-059>063-066>070-074>076-081>083-252200-
SOUTHEAST LOWER MICHIGAN

CITY           SKY/WX    TMP DP  RH WIND       PRES   REMARKS
ADRIAN         PTSUNNY   83  68  60 W15G24    29.99S
ALMA           SUNNY     83  67  58 W10G18    29.96S
ANN ARBOR      CLOUDY    83  70  64 W12       29.97S
BAD AXE        MOSUNNY   80  67  65 NW7       29.95S
CARO           MOSUNNY   81  72  75 NW3       29.94F
DETROIT CITY   CLOUDY    86  69  56 W14G23    29.94S HX  90
DETROIT        PTSUNNY   85  70  60 W12       29.95F
FLINT          CLOUDY    80  72  76 W8        29.97S
GROSSE ILE     PTSUNNY   85  70  60 W14G21    29.94S
HILLSDALE      MOSUNNY   81  69  65 W14       30.02R
HOWELL         MOSUNNY   81  71  69 W13       29.98F

CITY           SKY/WX    TMP DP  RH WIND       PRES   REMARKS
JACKSON        MOSUNNY   80  71  74 W12G21    29.99S
LAMBERTVILLE   MOSUNNY   87  69  55 W8G21     29.98S HX  90
LANSING        MOSUNNY   80  70  71 W10       29.99S
LAPEER         LGT RAIN  77  73  87 W7        29.97S
MASON          CLOUDY    79  69  70 W12G20    29.99S
MONROE         PTSUNNY   86  72  62 W15G22    29.95S HX  91
MT. CLEMENS    MOSUNNY   83  70  62 NW12G25   29.93R
PONTIAC        CLOUDY    83  68  60 W23       29.97R
PORT HURON     PTSUNNY   73  72  94 W6        29.95S
TRI CITIES     SUNNY     83  68  60 NW12      29.95S
MIDLAND        FAIR      84  64  49 W9        29.93F
TROY           MOSUNNY   87  66  50 W14G23    29.97S
SAGINAW HB     MOSUNNY   82  66  57 NW9       29.94F
$$
MIZ043>046-050>051-056>058-064>065-071>073-077>080-252200-
SOUTHWEST LOWER MICHIGAN

CITY           SKY/WX    TMP DP  RH WIND       PRES   REMARKS
BATTLE CREEK   MOSUNNY   79  70  74 W13       30.02R
BENTON HARBOR  SUNNY     77  67  71 NW7       30.03F
BIG RAPIDS     SUNNY     82  55  38 W9        29.98S
COLDWATER      CLOUDY    79  69  71 W12G17    30.02S
FREMONT        FAIR      79  56  45 W8        30.00R
HOLLAND        SUNNY     76  65  68 W8        30.03R
GRAND RAPIDS   MOSUNNY   81  62  52 W15       30.00S
IONIA          FAIR      82  63  53 W14G21    29.98S
KALAMAZOO      PTSUNNY   81  68  64 W16       30.02R
LUDINGTON      SUNNY     75  56  51 W6        30.00S
MARSHALL       PTSUNNY   82  72  69 W14       30.00S
MOUNT PLEASANT SUNNY     84  64  50 W8        29.95S
MUSKEGON       MOSUNNY   77  64  64 W8        30.01S
SOUTH HAVEN    SUNNY     78  67  69 NW8       30.03F
$$
MIZ016>042-252200-
NORTHERN LOWER MICHIGAN

CITY           SKY/WX    TMP DP  RH WIND       PRES   REMARKS
ALPENA         SUNNY     86  58  38 NW8       29.92S
BEAVER ISLAND  CLOUDY    74  62  64 SW13      29.95S
BELLAIRE       SUNNY     76  59  55 CALM      29.97R
CADILLAC       SUNNY     79  59  50 W9        29.99S
CHARLEVOIX     SUNNY     74  60  62 W9        29.99S
FRANKFORT      PTSUNNY   74  60  62 SW6       29.99S
GAYLORD        SUNNY     77  57  50 W12       29.97S
GRAYLING       MOSUNNY   81  63  53 W8G17     29.97R
HARBOR SPRINGS MOSUNNY   74  61  63 W7        29.95S
HOUGHTON LAKE  SUNNY     81  61  50 W9        29.97S
MANISTEE       SUNNY     76  59  55 SW8       29.99S
OSCODA         SUNNY     85  62  46 W8        29.91S
PELLSTON       CLOUDY    76  57  51 SW9       29.94S
ROGERS CITY    MOSUNNY   80  59  47 W10G16    29.93S
TRAVERSE CITY  PTSUNNY   78  56  46 W8        29.95S
$$
MIZ007>008-015-252200-
EASTERN UPPER MICHIGAN

CITY           SKY/WX    TMP DP  RH WIND       PRES   REMARKS
KINROSS        MOSUNNY   74  61  63 N12       29.92R
MACKINAC ISLAN CLOUDY    72  64  74 SW14      29.93S
NEWBERRY       MOSUNNY   79  54  42 W6        29.92R
S. S. MARIE    SUNNY     75  58  55 NW7       29.91R
MUNISING         N/A     74  59  59 NE13      29.91R
$$
MIZ004>006-011>014-085-252200-
CENTRAL UPPER MICHIGAN

CITY           SKY/WX    TMP DP  RH WIND       PRES   REMARKS
MANISTIQUE     MOSUNNY   74  61  65 SW14      29.92S
ESCANABA       SUNNY     82  55  39 W13       29.91F
MENOMINEE      SUNNY    N/A N/A N/A W9        29.95F
SAWYER-GWINN   MOSUNNY   77  52  41 W12G20    29.93S
$$
MIZ001>003-009>011-084-252200-
WESTERN UPPER MICHIGAN

CITY           SKY/WX    TMP DP  RH WIND       PRES   REMARKS
IRON MOUNTAIN  MOSUNNY   79  54  41 W8G21     29.94S
HOUGHTON       MOSUNNY   73  57  57 W18       29.90R
COPPER HARBOR    N/A     75  54  47 NW9G29    29.87S
IRONWOOD       PTSUNNY   73  54  51 W17G28    29.95R
$$

ABBREVIATIONS USED IN REMARKS
   TC - TEMPERATURE IN CELSIUS
  WCI - WIND CHILL INDEX
   HX - HEAT INDEX
  VSB - VISIBILITY




USA.gov is the U.S. government's official web portal to all federal, state and local government web resources and services.